Theta_e
287 287 288 287 286 287 286 286 282 284 286 289 292 293 294 293 294 294 294 294 294 294 294 294 295 295 296 296 295 294 294 294 295 296 295 294 293 292 291 291 293 291 290 290
281 286 287 283 285 286 286 287 287 287 287 293 293 292 292 292 292 292 292 294 294 294 294 293 293 293 294 293 292 292 291 290 292 291 290 290 289 289 289 288 288 287 286 288
273 281 280 274 281 284 284 285 287 283 288 290 289 290 290 290 290 291 292 293 293 293 293 292 292 292 291 290 288 286 286 287 287 286 286 287 288 287 287 287 286 285 285 284
269 271 269 280 282 283 285 286 287 287 288 288 288 288 290 292 289 291 292 292 293 292 291 291 290 290 288 286 285 285 284 284 284 285 285 285 284 285 285 285 284 284 284 283
270 265 274 279 280 280 280 280 284 283 284 285 286 285 286 291 291 291 291 292 292 292 291 290 289 288 284 284 285 284 285 284 283 283 284 284 284 283 282 280 278 279 280 281
266 269 264 275 280 282 283 274 284 286 285 285 284 280 282 288 289 290 291 291 290 290 289 288 288 285 283 283 283 283 284 284 283 282 281 282 283 283 281 277 280 279 279 282
272 273 272 279 282 283 272 275 282 284 285 283 283 285 287 288 289 288 288 289 289 288 288 288 287 283 282 282 281 283 282 281 281 281 280 279 278 277 275 275 277 280 281 281
275 274 271 282 280 278 281 283 285 285 286 286 287 287 287 287 286 285 285 286 286 285 285 285 283 280 280 280 281 280 279 279 279 278 280 281 273 273 275 280 280 280 280 279
275 276 283 282 283 286 286 283 283 285 286 285 285 285 285 285 285 285 284 284 284 281 281 282 278 276 278 279 279 278 276 277 277 276 278 276 276 279 280 280 279 278 278 278
275 278 279 281 282 285 284 286 285 284 284 284 283 284 283 283 283 284 284 282 278 276 278 279 275 276 275 278 277 273 273 274 274 275 275 274 279 279 280 279 278 278 278 278
275 279 279 281 282 283 283 283 283 283 283 282 282 282 282 281 281 282 282 279 275 277 278 278 275 273 271 275 278 277 273 273 274 272 271 274 274 274 274 275 278 276 277 278
273 279 280 280 282 282 281 280 280 280 280 281 281 281 281 281 280 279 280 278 275 274 273 274 271 271 269 268 272 276 277 279 279 273 274 277 278 279 283 283 283 283 283 278
278 279 281 282 281 277 278 278 278 277 278 278 279 278 277 277 278 276 275 273 273 272 271 269 268 268 265 265 266 270 277 276 278 277 278 277 277 277 275 281 285 286 285 284
278 278 277 278 277 276 275 275 274 273 275 275 273 270 271 271 273 273 273 271 268 270 268 265 265 266 265 267 270 271 273 279 277 277 279 278 278 278 278 277 276 276 280 282
275 273 274 272 273 272 270 270 268 270 270 269 268 266 267 267 267 269 270 266 267 269 269 266 264 265 264 264 266 270 274 274 277 277 278 278 277 277 276 275 274 274 275 278
268 267 267 268 268 267 266 265 264 265 264 264 263 263 264 263 264 266 264 260 261 264 261 263 262 263 264 264 267 271 273 276 277 277 276 276 276 276 275 274 272 272 273 273
264 265 260 260 263 264 263 263 263 262 261 260 260 260 260 260 262 264 257 256 257 260 260 260 260 263 264 265 269 270 270 272 273 272 272 273 273 273 272 271 270 269 271 275
261 262 261 260 260 260 260 259 259 257 257 257 258 257 257 257 258 257 255 255 256 259 260 260 261 265 264 267 269 270 270 270 270 269 269 269 269 269 269 268 268 267 266 267
255 256 258 259 258 257 256 255 254 254 255 255 253 254 256 254 255 255 256 257 258 259 260 261 265 264 264 267 268 268 268 268 267 266 267 267 266 266 266 266 265 264 264 264
250 250 252 253 252 251 251 251 251 251 252 250 251 253 252 253 255 255 255 257 259 260 261 261 262 262 263 264 266 265 265 265 265 265 264 264 264 263 263 263 262 261 260 260
250 251 251 251 250 248 247 247 248 249 252 250 251 252 252 254 256 256 255 258 260 261 262 262 261 261 262 263 263 263 263 263 262 262 262 261 261 261 260 259 259 259 258 258
248 248 250 250 249 248 247 247 247 248 250 251 254 256 254 255 255 257 258 257 260 261 261 261 261 261 261 262 261 261 261 261 260 260 260 259 258 258 257 257 257 257 257 256
245 247 249 248 248 247 245 246 247 248 249 251 253 255 255 256 256 257 257 258 259 261 260 260 262 261 260 260 259 259 259 258 258 258 257 256 256 256 256 256 255 256 255 255
244 245 246 246 245 246 246 247 247 248 250 252 253 254 254 255 255 256 257 258 259 258 258 260 261 261 258 257 257 257 256 256 256 256 255 255 252 252 251 250 250 250 250 250
243 243 243 246 246 246 246 247 249 250 250 251 252 253 254 255 255 255 256 256 258 257 256 257 259 258 256 255 255 255 255 254 254 253 252 251 248 246 246 247 248 248 247 247
242 243 243 243 245 246 247 248 248 249 250 250 250 252 254 254 255 255 255 256 256 256 255 255 255 255 254 254 253 253 253 253 252 251 249 247 245 246 245 247 247 248 248 247
242 245 244 245 246 246 247 247 247 247 249 248 250 253 253 254 254 254 254 254 254 254 254 254 254 254 253 253 252 252 251 250 250 249 246 246 247 246 247 248 247 246 247 247
Wind_Speed
3 4 2 4 4 5 6 4 5 1 11 4 8 10 10 7 8 8 8 8 8 8 8 8 10 11 11 10 10 8 7 7 10 9 7 6 7 7 7 7 8 8 8 10
0 3 6 4 9 8 6 5 9 8 21 11 10 5 6 8 7 6 6 6 7 8 9 10 9 9 9 7 8 9 9 9 9 8 7 8 7 7 7 7 7 6 7 9
3 3 4 7 10 13 7 6 8 11 17 6 5 4 4 4 2 2 4 5 6 7 7 8 9 9 11 11 8 7 8 8 8 8 8 8 8 7 8 8 6 8 7 7
4 3 3 4 2 1 11 10 9 9 5 3 3 5 7 7 1 5 8 7 8 5 6 6 5 8 9 10 10 8 7 6 6 7 9 8 7 7 7 5 6 6 7 8
5 5 7 10 6 7 8 7 5 5 2 3 7 6 2 7 4 3 6 8 7 7 6 7 7 7 7 11 10 10 10 7 5 6 9 8 8 7 6 4 3 4 4 6
3 6 11 6 1 3 6 8 5 6 4 2 2 4 4 3 3 7 7 7 8 9 6 6 7 6 7 10 9 12 10 11 10 7 5 6 6 7 3 3 5 2 4 5
6 5 9 8 5 2 6 8 5 3 3 3 3 6 7 5 6 4 5 8 8 8 8 10 7 7 9 8 10 9 10 10 8 9 9 6 4 2 2 3 4 3 4 2
4 5 13 6 4 10 6 3 6 6 6 5 6 7 8 9 7 7 8 8 6 7 9 7 6 4 8 9 8 7 8 9 9 7 6 5 4 5 1 2 0 2 3 4
10 9 4 3 5 5 5 4 3 3 2 2 5 6 8 10 12 10 6 6 5 5 10 12 5 2 9 8 8 9 7 8 7 8 7 5 4 5 3 1 2 2 3 1
5 6 5 1 2 5 3 4 2 1 4 5 9 9 8 8 11 10 9 6 3 4 8 13 4 5 6 8 7 6 7 6 5 5 6 4 4 2 2 2 3 2 2 1
3 4 1 2 3 6 4 2 5 7 8 9 8 10 7 7 7 8 8 5 3 7 9 11 6 6 5 7 9 10 6 5 4 3 3 4 4 3 2 3 3 2 2 3
5 5 4 5 6 3 5 6 5 4 6 3 4 8 5 9 6 6 10 6 7 7 8 10 6 7 6 5 7 9 9 7 6 3 3 3 3 3 4 6 6 6 5 3
5 3 7 7 2 5 3 4 5 7 6 9 3 4 6 10 8 7 7 7 8 8 8 7 8 8 5 5 5 7 10 8 5 4 2 1 2 2 2 4 3 5 3 3
3 4 3 4 3 2 3 4 5 6 5 3 4 3 6 10 11 10 10 8 6 7 7 6 7 8 6 7 7 8 10 11 4 3 3 2 2 1 1 2 2 3 8 12
6 3 1 1 1 1 3 4 6 7 6 8 5 7 8 10 12 13 10 6 7 8 6 6 7 9 7 8 8 8 7 3 2 1 1 1 1 2 2 3 3 3 3 7
4 3 3 4 2 1 2 1 4 7 7 8 9 9 10 12 13 13 6 4 5 7 5 7 8 8 9 9 10 5 4 3 3 3 3 3 3 3 3 4 4 4 5 5
4 3 2 3 4 2 3 3 4 7 8 8 10 10 11 12 12 10 5 4 3 4 5 6 8 9 9 8 7 3 2 2 5 5 5 3 3 4 4 4 4 5 6 8
3 3 2 3 4 4 4 4 5 6 8 8 10 9 9 7 7 6 5 4 4 4 3 6 9 7 8 7 5 3 2 3 5 5 4 4 4 5 5 5 5 5 4 7
3 2 1 3 1 3 4 5 5 6 6 7 6 8 7 6 5 4 4 4 5 5 6 9 11 8 8 10 5 4 3 5 5 5 5 6 6 6 5 5 5 5 5 5
3 2 1 2 2 1 4 4 6 6 6 4 6 5 4 5 4 3 3 2 3 3 6 8 8 6 8 8 9 5 5 6 5 6 5 5 5 5 5 7 5 5 4 4
4 3 1 1 3 3 3 4 4 5 6 3 2 3 3 5 4 4 3 3 7 7 7 7 7 6 6 7 7 6 6 6 6 6 6 5 5 5 5 4 4 4 4 3
4 3 2 1 1 2 3 4 3 3 3 4 4 3 3 3 3 3 4 3 4 9 6 5 6 9 8 10 6 7 6 7 6 5 5 5 4 4 4 4 3 3 3 3
4 4 3 3 4 3 3 3 3 2 3 4 4 5 3 2 3 3 3 7 5 7 6 6 8 12 12 6 6 6 6 6 5 5 4 3 3 3 2 2 2 2 2 2
4 3 3 0 3 4 2 4 2 3 3 3 4 4 3 2 2 3 4 6 6 7 6 6 8 11 9 5 5 5 4 4 4 4 3 3 2 2 2 2 2 2 2 3
4 3 3 5 5 1 2 2 1 3 3 3 3 3 4 3 2 2 3 3 7 5 4 7 9 9 4 4 4 3 2 2 2 1 2 1 2 2 3 2 3 3 4 4
3 3 2 3 3 1 1 1 1 1 1 1 1 2 2 2 3 3 3 4 4 5 4 4 4 4 4 4 4 3 3 3 3 3 3 3 3 3 3 4 4 4 4 5
3 4 3 2 3 1 1 1 1 0 1 1 0 2 3 3 3 4 5 4 4 4 4 4 4 4 4 4 4 4 4 3 4 3 3 4 4 4 5 5 5 5 5 5
Wind_Direction
125 135 131 181 193 190 198 176 189 1 298 262 291 277 290 309 334 23 18 10 358 345 335 335 343 344 346 344 345 342 313 292 275 284 281 270 261 256 247 231 232 220 211 221
240 203 196 231 229 222 230 206 257 252 265 287 274 325 25 17 34 19 356 341 331 326 327 332 332 330 328 329 332 338 333 315 308 301 292 270 264 260 259 253 243 224 219 218
259 16 80 307 218 198 201 188 220 241 252 333 7 67 358 331 13 339 310 287 310 316 316 319 320 325 319 317 316 318 311 306 303 301 289 278 275 270 253 243 223 222 221 214
168 49 230 248 87 174 219 240 228 270 330 42 309 269 241 216 212 334 331 323 316 299 301 299 296 308 314 315 311 309 301 294 300 305 300 296 288 272 265 243 227 217 218 214
143 197 312 286 232 176 168 252 220 230 77 344 322 325 330 161 196 309 294 297 281 285 282 292 299 304 310 308 311 313 307 305 300 306 307 305 299 288 279 265 231 214 208 214
135 167 209 224 31 183 101 279 149 134 165 242 334 343 234 274 341 310 302 299 296 305 288 283 293 307 310 305 311 307 314 314 311 294 269 286 291 304 289 275 262 228 225 223
189 213 280 241 182 72 119 242 200 198 229 249 232 218 271 323 306 274 259 288 299 301 297 297 300 308 296 296 295 300 311 308 306 308 301 278 269 238 252 285 304 290 272 251
172 195 251 184 104 170 203 158 190 208 224 259 269 296 303 305 294 301 303 313 309 305 306 298 290 287 294 289 292 303 302 302 306 300 299 309 300 298 241 187 242 313 303 303
183 202 213 107 129 194 169 195 194 175 155 273 277 278 281 291 305 305 279 276 281 288 309 309 294 272 291 290 314 309 309 304 306 314 312 326 307 304 313 305 118 229 239 221
87 238 231 180 125 159 201 148 130 240 266 264 264 258 257 272 285 299 307 304 274 303 301 298 289 289 255 297 304 297 293 294 294 301 306 311 303 287 270 275 267 244 234 232
263 279 150 338 135 152 190 198 242 251 245 243 241 268 262 268 268 277 285 291 280 293 289 286 299 288 290 301 307 304 285 280 289 286 283 298 280 249 254 265 243 248 240 223
209 193 145 236 268 321 308 306 339 352 328 341 254 274 295 289 285 271 286 292 292 277 281 285 294 289 291 302 311 304 296 283 280 255 253 263 272 302 284 269 263 264 265 194
225 198 197 245 279 40 2 17 360 335 319 307 320 342 318 303 304 297 284 284 275 280 278 288 292 289 285 299 296 288 286 274 257 246 233 241 290 310 321 344 8 262 223 215
157 100 276 217 231 34 20 340 337 297 284 329 325 319 307 298 302 296 294 286 286 283 281 290 294 289 296 302 298 286 277 264 232 221 217 204 234 219 75 36 14 355 9 33
155 106 117 354 258 87 20 347 323 312 321 317 330 317 312 313 306 300 300 298 300 282 282 309 305 299 319 304 291 285 285 258 210 197 202 197 137 75 62 72 50 19 5 25
116 127 158 193 231 333 358 322 288 302 315 310 310 310 309 301 294 291 288 320 315 307 327 318 305 302 307 302 291 290 298 37 74 76 58 44 61 83 66 69 63 40 35 19
118 252 161 222 206 257 246 269 281 292 300 296 294 301 302 298 294 292 305 326 320 319 323 314 302 303 305 296 295 304 334 50 89 78 63 43 78 87 79 82 79 57 39 46
100 105 132 175 243 264 268 255 275 280 278 281 292 295 293 293 291 301 298 284 309 313 324 321 308 319 320 313 325 359 22 59 69 76 73 67 64 70 75 76 65 60 42 33
124 153 235 262 286 277 273 270 264 261 275 275 286 283 274 276 287 292 312 347 351 324 340 333 326 347 342 339 4 14 42 58 64 69 72 78 68 60 64 65 68 63 53 49
136 148 124 268 333 200 271 269 285 287 280 278 286 286 314 321 320 346 355 34 357 320 330 336 342 347 11 350 21 22 41 61 71 67 62 65 67 69 70 71 79 75 66 59
159 163 187 249 278 288 256 267 274 293 304 326 340 331 313 310 6 348 351 27 1 353 357 359 7 5 19 6 24 29 37 52 57 58 61 63 72 67 65 62 56 54 52 49
162 155 179 213 210 283 287 290 292 310 353 357 9 18 24 8 25 55 45 14 345 8 357 8 19 23 28 25 30 31 36 44 47 50 53 46 47 53 49 48 44 39 38 29
159 153 167 166 175 217 307 333 333 18 37 24 21 14 19 23 9 357 21 359 358 25 12 1 30 39 33 24 28 32 33 40 46 47 46 47 48 49 46 36 29 12 1 347
117 113 145 148 105 80 40 302 344 26 46 40 32 14 5 1 49 20 9 352 9 24 10 13 17 32 29 17 21 27 29 28 34 27 23 37 25 10 8 351 336 330 317 318
124 120 94 109 100 134 251 274 53 45 42 36 28 17 20 10 33 356 358 355 1 10 5 2 14 16 13 8 5 4 0 3 4 2 330 323 324 326 308 301 287 286 283 274
123 127 129 140 148 187 240 91 118 352 42 46 8 340 12 9 1 2 354 356 350 350 356 350 351 355 352 341 335 333 323 326 346 322 311 297 284 273 267 271 266 262 258 257
86 96 81 54 42 63 96 128 129 28 353 40 328 359 0 358 354 356 352 347 340 336 339 338 334 336 322 310 307 307 296 296 291 272 259 267 258 250 252 251 253 253 256 253